TimeEDT,TemperatureF,Dew PointF,Humidity,Sea Level PressureIn,VisibilityMPH,Wind Direction,Wind SpeedMPH,Gust SpeedMPH,PrecipitationIn,Events,Conditions,WindDirDegrees,DateUTC
12:53 AM,66.0,46.0,48,29.94,10.0,NNE,10.4,-,N/A,,Partly Cloudy,30,2013-07-01 04:53:00
1:53 AM,64.0,46.9,54,29.94,10.0,NNE,6.9,-,N/A,,Scattered Clouds,30,2013-07-01 05:53:00
2:53 AM,64.0,48.9,58,29.93,10.0,NNE,6.9,-,N/A,,Clear,20,2013-07-01 06:53:00
3:53 AM,64.0,50.0,60,29.93,10.0,NNE,9.2,-,N/A,,Partly Cloudy,20,2013-07-01 07:53:00
4:53 AM,64.0,51.1,63,29.94,10.0,NNE,9.2,-,N/A,,Clear,20,2013-07-01 08:53:00
5:53 AM,64.0,52.0,65,29.95,10.0,NNE,11.5,-,N/A,,Clear,20,2013-07-01 09:53:00
6:53 AM,64.9,51.1,61,29.95,10.0,NNE,10.4,-,N/A,,Clear,20,2013-07-01 10:53:00
7:53 AM,66.0,51.1,59,29.96,10.0,NNE,10.4,-,N/A,,Mostly Cloudy,30,2013-07-01 11:53:00
8:53 AM,66.9,51.1,57,29.97,10.0,North,8.1,-,N/A,,Scattered Clouds,10,2013-07-01 12:53:00
9:53 AM,69.1,52.0,54,29.98,10.0,NNE,11.5,-,N/A,,Mostly Cloudy,30,2013-07-01 13:53:00
10:53 AM,70.0,54.0,57,29.98,10.0,NE,11.5,-,N/A,,Scattered Clouds,40,2013-07-01 14:53:00
11:53 AM,70.0,55.9,61,29.99,10.0,North,6.9,-,0.00,Rain,Light Rain,10,2013-07-01 15:53:00
12:53 PM,68.0,59.0,73,30.01,10.0,NNE,8.1,-,0.01,Rain,Light Rain,20,2013-07-01 16:53:00
1:53 PM,66.9,59.0,76,30.03,10.0,NNE,9.2,-,0.06,Rain,Light Rain,20,2013-07-01 17:53:00
2:53 PM,66.0,57.9,75,30.04,10.0,NNE,5.8,-,0.03,Rain,Rain,30,2013-07-01 18:53:00
3:53 PM,66.0,57.9,75,30.04,10.0,NNE,5.8,-,0.04,Rain,Light Rain,20,2013-07-01 19:53:00
4:53 PM,66.0,57.9,75,30.02,10.0,NNE,9.2,-,0.04,Rain,Light Rain,30,2013-07-01 20:53:00
5:53 PM,64.9,57.9,78,30.03,10.0,NNE,9.2,-,0.05,Rain,Light Rain,30,2013-07-01 21:53:00
6:53 PM,66.0,57.9,75,30.03,10.0,NE,8.1,-,0.03,Rain,Light Rain,40,2013-07-01 22:53:00
7:53 PM,66.0,59.0,78,30.05,10.0,ENE,10.4,-,0.02,Rain,Light Rain,60,2013-07-01 23:53:00
8:53 PM,64.0,57.0,78,30.05,10.0,NE,12.7,-,0.02,Rain,Light Rain,40,2013-07-02 00:53:00
9:53 PM,64.0,57.0,78,30.04,10.0,North,13.8,-,0.09,Rain,Light Rain,10,2013-07-02 01:53:00
10:53 PM,64.0,57.0,78,30.04,10.0,NNE,12.7,-,0.00,,Overcast,20,2013-07-02 02:53:00
11:53 PM,64.0,55.9,75,30.04,10.0,NNE,10.4,-,N/A,,Overcast,30,2013-07-02 03:53:00